Location: 22
(39.7117°N, 89.5929°W)
Time: 08:29:50
(UTC-05:00)

S-56A Canister/Altair - Pass Details

Date: 07 February 2023
Orbit: 638 x 2493 km, 38.9° (Epoch: 25 March)

Event Time Altitude Azimuth Distance (km) Brightness Sun altitude
Rises 15:35:59 0° 276° (W) 3,428 11.6 17.5°
Reaches altitude 10° 15:38:36 10° 262° (W) 2,686 11.5 17.1°
Maximum altitude 15:43:49 26° 209° (SSW) 2,164 11.3 16.3°
Drops below altitude 10° 15:50:49 10° 158° (SSE) 3,701 11.2 15.3°
Sets 15:55:13 0° 147° (SSE) 5,035 11.7 14.6°
